Ely, NV

3:02 AM PDT on September 30, 2016 (GMT -0700)
Ely

Weather History for KELY - October, 2012

Change the Weather History Date:

Monday, October 15, 2012

  Actual Average Record
Temperature  
Mean Temperature 52 °F 46 °F  
Max Temperature 71 °F 63 °F 82 °F (1991)
Min Temperature 32 °F 28 °F 11 °F (1897)
Degree Days  
Heating Degree Days 13 19  
Month to date heating degree days 196 255  
Since 1 July heating degree days 361 571  
Cooling Degree Days 0 0  
Month to date cooling degree days 0 0  
Year to date cooling degree days 314 218  
Growing Degree Days 2 (Base 50)    
Moisture  
Dew Point 32 °F    
Average Humidity 56    
Maximum Humidity 92    
Minimum Humidity 20    
Precipitation  
Precipitation 0.00 in 0.03 in 0.48 in (1938)
Month to date precipitation 0.65 0.48  
Year to date precipitation 9.79 7.95  
Snow  
Snow 0.00 in 0.10 in 2.00 in (1965)
Month to date snowfall 0.0 1.2  
Since 1 July snowfall 0.0 1.6  
Since 1 September snowfall 0.0 1.6  
Snow Depth 0.00 in    
Sea Level Pressure  
Sea Level Pressure 30.07 in    
Wind  
Wind Speed 8 mph (South)    
Max Wind Speed 16 mph    
Max Gust Speed 20 mph    
Visibility 10 miles    
Events      
T = Trace of Precipitation, MM = Missing Value Source: NWS Daily Summary

Daily Weather History Graph

Daily Weather History Graph

Search for Another Location

Airport or City:

Trip Planner

Search our weather history database for the weather conditions in past years. The results will help you decide how hot, cold, wet, or windy it might be!

Date:

Astronomy

Oct. 15, 2012 Rise Set
Actual Time 6:49 AM PDT 5:59 PM PDT
Civil Twilight 6:22 AM PDT 6:26 PM PDT
Nautical Twilight 5:51 AM PDT 6:57 PM PDT
Astronomical Twilight 5:20 AM PDT 7:28 PM PDT
Moon 7:04 AM PDT (10/15) 6:02 PM PDT (10/15)
Length of Visible Light 12h 03m
Length of Day
11h 09m
New Moon, 0% of the Moon is Illuminated
Oct 15
New Moon
Oct 21
First Quarter
Oct 29
Full
Nov 6
Last Quarter
Nov 13
New

Hourly Weather History & Observations

Time (PDT) Temp. Windchill Dew Point Humidity Pressure Visibility Wind Dir Wind Speed Gust Speed Precip Events Conditions
12:53 AM 39.0 °F 33.4 °F 35.1 °F 86% 30.12 in 10.0 mi SE 8.1 mph - N/A   Clear
1:53 AM 36.0 °F 29.0 °F 33.1 °F 89% 30.09 in 10.0 mi SSE 9.2 mph - N/A   Clear
2:53 AM 37.9 °F 30.5 °F 33.1 °F 83% 30.06 in 10.0 mi SSW 11.5 mph - N/A   Clear
3:53 AM 34.0 °F 31.0 °F 30.9 °F 89% 30.08 in 10.0 mi SE 3.5 mph - N/A   Clear
4:53 AM 35.6 °F 28.0 °F 30.2 °F 81% 30.23 in 10.0 mi South 10.4 mph - N/A   Clear
5:53 AM 33.1 °F 28.7 °F 30.0 °F 89% 30.15 in 10.0 mi South 4.6 mph - N/A   Clear
6:53 AM 36.0 °F - 32.0 °F 86% 30.16 in 10.0 mi Calm Calm - N/A   Clear
7:53 AM 36.0 °F 28.0 °F 32.0 °F 86% 30.19 in 10.0 mi South 11.5 mph - N/A   Clear
8:53 AM 44.1 °F 38.1 °F 34.0 °F 68% 30.17 in 10.0 mi SSE 11.5 mph - N/A   Clear
9:53 AM 53.1 °F - 36.0 °F 52% 30.12 in 10.0 mi SSE 9.2 mph - N/A   Clear
10:53 AM 59.0 °F - 35.1 °F 41% 30.09 in 10.0 mi SE 3.5 mph - N/A   Clear
11:53 AM 64.9 °F - 34.0 °F 32% 30.05 in 10.0 mi South 5.8 mph - N/A   Clear
12:53 PM 66.9 °F - 30.9 °F 26% 30.03 in 10.0 mi West 5.8 mph - N/A   Clear
1:53 PM 68.0 °F - 28.0 °F 22% 30.01 in 10.0 mi WSW 8.1 mph - N/A   Clear
2:53 PM 70.0 °F - 30.0 °F 23% 29.98 in 10.0 mi WNW 11.5 mph 16.1 mph N/A   Clear
3:53 PM 69.1 °F - 26.1 °F 20% 29.99 in 10.0 mi West 10.4 mph - N/A   Clear
4:53 PM 69.1 °F - 26.1 °F 20% 29.97 in 10.0 mi NNW 8.1 mph 18.4 mph N/A   Clear
5:53 PM 62.1 °F - 30.9 °F 31% 29.99 in 10.0 mi NNE 5.8 mph - N/A   Clear
6:53 PM 55.9 °F - 30.0 °F 37% 30.04 in 10.0 mi NW 4.6 mph - N/A   Clear
7:53 PM 46.9 °F - 34.0 °F 61% 30.09 in 10.0 mi South 8.1 mph - N/A   Clear
8:53 PM 44.1 °F 41.5 °F 34.0 °F 68% 30.08 in 10.0 mi South 4.6 mph - N/A   Clear
9:53 PM 43.0 °F 37.2 °F 33.1 °F 68% 30.04 in 10.0 mi South 10.4 mph - N/A   Clear
10:53 PM 43.0 °F 37.7 °F 34.0 °F 71% 30.01 in 10.0 mi South 9.2 mph - N/A   Clear
11:53 PM 39.9 °F 35.1 °F 34.0 °F 79% 29.98 in 10.0 mi SSE 6.9 mph - N/A   Clear